THOR ABLESTAR DEB, 478

Orbit data source: Space-Track

THOR ABLESTAR DEB, 478 is space debris in LEO originally from a launch on Thu, 29 Jun 1961 UTC launched from the Air Force Eastern Test Range (AFETR). Debris objects in space refer to the collection of defunct objects orbiting the Earth. Examples of debris include non-operational satellites, rocket bodies, and fragments generated from explosions, collisions, or faulty payload assembly.

Loading next visibility...
Identifier
478, 1961-015FQ
Orbit
LEO
Country
Flag of USUS
Related business
Manufacturer
Unknown
Mission
Spacecraft
Bus & Motor
Unknown
Mass
Unknown
Launch date (UTC)
1961-06-29 (65 years ago)
Launch vehicle
Unknown
Launch site
Air Force Eastern Test Range (AFETR)
Object type
Payload
Rocket body
Debris
Shape & HBR
Unknown shape, 0.1 m
Radar Cross Section
Medium (>0.1 m² and <1 m²)

Expand to show TLE details & history
Last TLE update: 1 day ago

TLE from 1 day ago
0 THOR ABLESTAR DEB
1 00478U 61015FQ  26163.19538827  .00008919  00000-0  78763-3 0  9994
2 00478  66.0560 180.3113 0035635 300.2259  59.5340 14.96339556383443
Epoch: 2026-06-12T04:41Z
TLE epoch observation values (Epoch: 2026-06-12T04:41:21.546Z)
Latitude
-0.00006°
Longitude
-150.55682°
Altitude
567.833 km
Speed
7.584 km/s
True Right ascension
12h 01m 14s
True Declination
0° 00' 00"
Sunlit
Object was in daylight at epoch
Visualization orbit readout
Latitude
Unknown
Longitude
Unknown
Altitude
Unknown
Speed
Unknown
Apparent Right ascension
Unknown
Apparent Declination
Unknown
Sunlit
N/A
Visualization observer readout
Local Sidereal Time
20:05:37
Azimuth
Unknown
Elevation
Unknown
Doppler factor
Unknown
Orbital elements
Apogee altitude
601.404 km
Perigee altitude
551.838 km
Semi-major axis
6,954.758 km
Eccentricity
0.00356
Inclination
66.056°
RAAN
180.3113°
Arg. of periapsis
300.2259°
True anomaly
59.88676°
Mean anomaly
59.534°
Eccentric anomaly
59.7103°
Mean motion
3.74214 °/min
Orbital period
96.2 mins
BSTAR
0.00078763
Loading maneuver chart data...
Computing Atmospheric mass density...

Documentation

Showing up to 5 results
|